Weather History for KPSX - March, 2014

Change the Weather History Date:

Sunday, March 9, 2014

  Actual Average Record
Temperature  
Mean Temperature 50 °F -  
Max Temperature 55 °F 71 °F 86 °F (2006)
Min Temperature 46 °F 53 °F 33 °F (1989)
Degree Days  
Heating Degree Days 14    
Moisture  
Dew Point 48 °F    
Average Humidity 90    
Maximum Humidity 97    
Minimum Humidity 80    
Precipitation  
Precipitation 0.17 in - - ()
Sea Level Pressure  
Sea Level Pressure 30.21 in    
Wind  
Wind Speed 17 mph (North)    
Max Wind Speed 22 mph    
Max Gust Speed 28 mph    
Visibility 5 miles    
Events Rain , Thunderstorm    
Averages and records for this station are not official NWS values.
T = Trace of Precipitation, MM = Missing Value Source: NWS Daily Summary

Daily Weather History Graph

Daily Weather History Graph

Search for Another Location

Airport or City:

Trip Planner

Search our weather history database for the weather conditions in past years. The results will help you decide how hot, cold, wet, or windy it might be!

Date:

Astronomy

Mar. 09, 2014 Rise Set
Actual Time 7:41 AM CDT 7:29 PM CDT
Civil Twilight 7:17 AM CDT 7:53 PM CDT
Nautical Twilight 6:50 AM CDT 8:20 PM CDT
Astronomical Twilight 6:23 AM CDT 8:48 PM CDT
Moon 1:43 PM CDT (3/9) 3:48 AM CDT (3/9)
Length of Visible Light 12h 35m
Length of Day
11h 48m
First Quarter, 61% of the Moon is Illuminated
Mar 9
First Quarter
Mar 16
Full
Mar 23
Last Quarter
Mar 30
New
Apr 7
First Quarter

Hourly Weather History & Observations

Time (CDT) Temp. Dew Point Humidity Pressure Visibility Wind Dir Wind Speed Gust Speed Precip Events Conditions
12:53 AM 52.0 °F 50.0 °F 93% 30.17 in 6.0 mi North 19.6 mph 27.6 mph N/A   Overcast
1:53 AM 52.0 °F 50.0 °F 93% 30.17 in 6.0 mi North 20.7 mph 25.3 mph 0.00 in Rain Light Rain
3:53 AM 50.0 °F 48.0 °F 93% 30.16 in 10.0 mi North 17.3 mph - 0.00 in   Overcast
4:43 AM 48.9 °F 46.9 °F 93% 30.18 in 7.0 mi North 19.6 mph - N/A Thunderstorm Overcast
4:53 AM 48.9 °F 46.9 °F 93% 30.18 in 7.0 mi North 21.9 mph 26.5 mph N/A Thunderstorm Overcast
5:04 AM 48.9 °F 46.9 °F 93% 30.18 in 6.0 mi North 18.4 mph - N/A   Overcast
5:53 AM 48.0 °F 46.0 °F 93% 30.19 in 3.0 mi North 19.6 mph 25.3 mph 0.06 in Rain Rain
6:34 AM 48.0 °F 46.0 °F 93% 30.20 in 5.0 mi NNE 12.7 mph - 0.06 in Rain Rain
6:53 AM 48.0 °F 46.9 °F 96% 30.18 in 4.0 mi NNE 13.8 mph - 0.08 in Rain Rain
7:44 AM 48.9 °F 48.0 °F 97% 30.20 in 5.0 mi North 13.8 mph - 0.03 in Rain Light Rain
7:53 AM 48.9 °F 46.9 °F 93% 30.20 in 4.0 mi North - - 0.03 in Rain Light Rain
8:53 AM 46.9 °F 45.0 °F 93% 30.22 in 4.0 mi North 20.7 mph - 0.00 in   Overcast
9:10 AM 46.9 °F 45.0 °F 93% 30.22 in 2.5 mi North 21.9 mph - N/A   Overcast
9:53 AM 46.9 °F 45.0 °F 93% 30.25 in 2.0 mi North 20.7 mph - N/A   Overcast
10:53 AM 48.0 °F 46.0 °F 93% 30.27 in 2.5 mi North 18.4 mph - N/A   Overcast
11:53 AM 48.0 °F 46.0 °F 93% 30.27 in 3.0 mi North 20.7 mph - N/A   Overcast
12:53 PM 48.9 °F 46.0 °F 90% 30.26 in 4.0 mi North 20.7 mph - N/A   Overcast
1:53 PM 52.0 °F 48.0 °F 86% 30.23 in 5.0 mi North 21.9 mph - N/A   Overcast
2:53 PM 52.0 °F 48.0 °F 86% 30.22 in 6.0 mi North 18.4 mph - N/A   Overcast
3:32 PM 53.1 °F 48.0 °F 83% 30.21 in 6.0 mi North 18.4 mph - N/A   Haze
3:53 PM 54.0 °F 48.9 °F 83% 30.20 in 6.0 mi North 19.6 mph - N/A   Haze
4:22 PM 54.0 °F 48.9 °F 83% 30.19 in 6.0 mi North 18.4 mph - N/A   Haze
4:53 PM 54.0 °F 48.9 °F 83% 30.19 in 6.0 mi North 16.1 mph - N/A   Haze
5:17 PM 54.0 °F 48.9 °F 83% 30.18 in 6.0 mi North 13.8 mph - N/A   Haze
5:30 PM 55.0 °F 50.0 °F 83% 30.17 in 6.0 mi North 15.0 mph - N/A   Haze
5:53 PM 55.9 °F 50.0 °F 80% 30.17 in 6.0 mi North 13.8 mph - N/A   Haze
6:53 PM 54.0 °F 50.0 °F 86% 30.17 in 5.0 mi North 11.5 mph - N/A   Clear
7:53 PM 53.1 °F 48.9 °F 86% 30.20 in 7.0 mi North 8.1 mph - N/A   Overcast
8:53 PM 52.0 °F 48.9 °F 89% 30.22 in 6.0 mi North 6.9 mph - N/A   Partly Cloudy
9:53 PM 51.1 °F 48.0 °F 89% 30.24 in 6.0 mi North 5.8 mph - N/A   Clear
10:53 PM 48.9 °F 46.9 °F 93% 30.25 in 5.0 mi NW 6.9 mph - N/A   Clear
11:53 PM 48.9 °F 48.0 °F 97% 30.24 in 5.0 mi NNW 6.9 mph - N/A   Clear
12:53 AM 50.0 °F 48.0 °F 93% 30.22 in 6.0 mi North 4.6 mph - N/A   Clear